O3B FM7

Last updated on Wed Sep 09 2026 00:03:19 GMT+0000 (Coordinated Universal Time)

1 40080U 14038B 26251.40627746 -.00000028 00000+0 00000+0 0 9999 2 40080 0.0423 347.7294 0002959 140.6064 231.6896 5.00115632222032
UTC large
Height (km)
Speed (km/s)
/
Latitude / Longitude
Inclination (degrees)
Orbital Period (minutes)
Azimuth
Elevation
Range (km)
Doppler Factor

Next 0 passes for location: London (51.5072 / 0.1276)

No passes found over London.
O3B FM7